Amritsar, India

7:13 AM IST on August 18, 2017 (GMT +0530)
Amritsar

Weather History for VIAR - June, 2014

Change the Weather History Date:

Tuesday, June 17, 2014

  Actual Average Record
Temperature  
Mean Temperature 96 °F -  
Max Temperature 111 °F 96 °F 115 °F (2012)
Min Temperature 81 °F 78 °F 69 °F (2001)
Cooling Degree Days 31    
Growing Degree Days 46 (Base 50)    
Moisture  
Dew Point 71 °F    
Average Humidity 46    
Maximum Humidity 74    
Minimum Humidity 17    
Precipitation  
Precipitation 0.00 in - - ()
Sea Level Pressure  
Sea Level Pressure 29.39 in    
Wind  
Wind Speed 3 mph ()    
Max Wind Speed 13 mph    
Max Gust Speed -    
Visibility 3.1 miles    
Events      
Averages and records for this station are not official NWS values.
T = Trace of Precipitation, MM = Missing Value Source: Averaged Metar Reports

Daily Weather History Graph

Daily Weather History Graph

Search for Another Location

Airport or City:

Trip Planner

Search our weather history database for the weather conditions in past years. The results will help you decide how hot, cold, wet, or windy it might be!

Date:

Astronomy

Jun. 17, 2014 Rise Set
Actual Time 5:25 AM IST 7:37 PM IST
Civil Twilight 4:57 AM IST 8:05 PM IST
Nautical Twilight 4:22 AM IST 8:40 PM IST
Astronomical Twilight 3:45 AM IST 9:17 PM IST
Moon 11:06 PM IST (6/17) 9:52 AM IST (6/17)
Length of Visible Light 15h 08m
Length of Day
14h 12m
Waning Gibbous, 77% of the Moon is Illuminated
Jun 17
Waning Gibbous
Jun 20
Last Quarter
Jun 27
New
Jul 5
First Quarter
Jul 12
Full

Hourly Weather History & Observations

Time (IST) Temp. Heat Index Dew Point Humidity Pressure Visibility Wind Dir Wind Speed Gust Speed Precip Events Conditions
12:00 AM 87.8 °F 93.8 °F 71.6 °F 58% 29.42 in 2.5 mi Calm Calm - N/A   Haze
12:30 AM 87.8 °F 95.6 °F 73.4 °F 62% 29.42 in 2.5 mi Calm Calm - N/A   Haze
1:00 AM 87.8 °F 95.6 °F 73.4 °F 62% 29.42 in 2.5 mi Calm Calm - N/A   Haze
1:30 AM 86.0 °F 93.4 °F 73.4 °F 66% 29.42 in 2.5 mi Calm Calm - N/A   Haze
2:00 AM 87.8 °F 95.6 °F 73.4 °F 62% 29.42 in 2.5 mi Calm Calm - N/A   Haze
2:30 AM 86 °F - 74 °F 61% 29.36 in 2 mi Calm Calm - -   Haze
2:30 AM 86.0 °F 95.1 °F 75.2 °F 70% 29.42 in 2.5 mi Calm Calm - N/A   Haze
3:00 AM 84.2 °F 92.3 °F 75.2 °F 74% 29.39 in 2.5 mi Calm Calm - N/A   Haze
3:30 AM 84.2 °F 92.3 °F 75.2 °F 74% 29.39 in 2.5 mi Calm Calm - N/A   Haze
4:00 AM 84.2 °F 92.3 °F 75.2 °F 74% 29.42 in 2.5 mi NE 5.8 mph - N/A   Haze
4:30 AM 84.2 °F 92.3 °F 75.2 °F 74% 29.42 in 2.5 mi Variable 2.3 mph - N/A   Haze
5:00 AM 84.2 °F 92.3 °F 75.2 °F 74% 29.42 in 2.5 mi Variable 2.3 mph - N/A   Haze
5:30 AM 84 °F - 75 °F 68% 29.37 in 2 mi Calm Calm - -   Haze
5:30 AM 84.2 °F 92.3 °F 75.2 °F 74% 29.42 in 2.5 mi Calm Calm - N/A   Haze
6:00 AM 84.2 °F 92.3 °F 75.2 °F 74% 29.42 in 2.5 mi Calm Calm - N/A   Haze
6:30 AM 84.2 °F 92.3 °F 75.2 °F 74% 29.42 in 2.5 mi Calm Calm - N/A   Haze
7:00 AM 86.0 °F 95.1 °F 75.2 °F 70% 29.44 in 2.5 mi Calm Calm - N/A   Haze
7:30 AM 87.8 °F 97.6 °F 75.2 °F 66% 29.44 in 2.5 mi Variable 1.2 mph - N/A   Haze
8:00 AM 91.4 °F 105.1 °F 77.0 °F 63% 29.44 in 2.5 mi Calm Calm - N/A   Haze
8:30 AM 94 °F - 76 °F 47% 29.39 in 2 mi East 3.5 mph - -   Haze
8:30 AM 93.2 °F 107.2 °F 77.0 °F 59% 29.44 in 2.5 mi Calm Calm - N/A   Haze
9:30 AM 98.6 °F 111.7 °F 75.2 °F 47% 29.44 in 3.1 mi SW 6.9 mph - N/A   Haze
10:00 AM 100.4 °F 111.9 °F 73.4 °F 42% 29.44 in 3.1 mi WSW 9.2 mph - N/A   Haze
10:30 AM 102.2 °F 111.7 °F 71.6 °F 37% 29.44 in 3.7 mi WSW 11.5 mph - N/A   Unknown
11:00 AM 104.0 °F 102.3 °F 53.6 °F 19% 29.44 in 3.7 mi SW 10.4 mph - N/A   Unknown
11:30 AM 106 °F - 70 °F 23% 29.37 in 2 mi West 11.5 mph - -  
11:30 AM 105.8 °F 114.2 °F 69.8 °F 31% 29.44 in 5.0 mi WSW 10.4 mph - N/A   Unknown
12:00 PM 105.8 °F 114.2 °F 69.8 °F 31% 29.44 in 5.0 mi SW 6.9 mph - N/A   Unknown
12:30 PM 107.6 °F 115.0 °F 68.0 °F 28% 29.42 in 5.6 mi SSW 8.1 mph - N/A   Unknown
1:00 PM 105.8 °F 114.2 °F 69.8 °F 31% 29.42 in 5.6 mi SSW 9.2 mph - N/A   Unknown
1:30 PM 105.8 °F 114.2 °F 69.8 °F 31% 29.42 in - SW 9.2 mph - N/A   Clear
2:00 PM 107.6 °F 117.0 °F 69.8 °F 30% 29.42 in - WSW 9.2 mph - N/A   Clear
2:30 PM 108 °F - 68 °F 19% 29.32 in 2 mi WSW 9.2 mph - -  
2:30 PM 107.6 °F 115.0 °F 68.0 °F 28% 29.39 in 5.0 mi WSW 9.2 mph - N/A   Unknown
3:00 PM 107.6 °F 113.2 °F 66.2 °F 26% 29.39 in 5.0 mi SSW 9.2 mph - N/A   Unknown
3:30 PM 107.6 °F 115.0 °F 68.0 °F 28% 29.39 in 5.0 mi SW 9.2 mph - N/A   Unknown
4:00 PM 107.6 °F 113.2 °F 66.2 °F 26% 29.36 in 5.0 mi SSW 8.1 mph - N/A   Unknown
4:30 PM 107.6 °F 112.3 °F 64.4 °F 25% 29.36 in 5.0 mi SSW 11.5 mph - N/A   Unknown
5:00 PM 109.4 °F 115.6 °F 66.2 °F 25% 29.36 in 5.0 mi SSW 12.7 mph - N/A   Unknown
5:30 PM 108 °F - 66 °F 17% 29.26 in 2 mi SW 11.5 mph - -  
5:30 PM 107.6 °F 112.3 °F 64.4 °F 25% 29.33 in 5.0 mi SW 11.5 mph - N/A   Unknown
6:00 PM 107.6 °F 112.3 °F 64.4 °F 25% 29.33 in 5.0 mi SW 12.7 mph - N/A   Unknown
6:30 PM 105.8 °F 111.5 °F 66.2 °F 28% 29.33 in 5.0 mi SW 9.2 mph - N/A   Unknown
7:00 PM 104.0 °F 110.5 °F 68.0 °F 31% 29.33 in 3.7 mi SW 6.9 mph - N/A   Unknown
8:00 PM 100.4 °F 107.8 °F 69.8 °F 37% 29.36 in 3.1 mi Variable 2.3 mph - N/A   Partly Cloudy
8:30 PM 98.6 °F 105.5 °F 69.8 °F 39% 29.36 in 2.5 mi Calm Calm - N/A   Partly Cloudy
9:00 PM 100.4 °F 107.8 °F 69.8 °F 37% 29.36 in 2.2 mi Calm Calm - N/A   Partly Cloudy
9:30 PM 96.8 °F 105.1 °F 71.6 °F 44% 29.36 in 2.2 mi Calm Calm - N/A   Partly Cloudy
10:00 PM 96.8 °F 105.1 °F 71.6 °F 44% 29.36 in 2.2 mi Calm Calm - N/A   Partly Cloudy
10:30 PM 95.0 °F 104.5 °F 73.4 °F 49% 29.36 in 2.2 mi Calm Calm - N/A   Haze
11:00 PM 95.0 °F 104.5 °F 73.4 °F 49% 29.36 in 2.2 mi Calm Calm - N/A   Haze
11:30 PM 94 °F - 75 °F 45% 29.31 in 1 mi Calm Calm - -   Haze
11:30 PM 95.0 °F 104.5 °F 73.4 °F 49% 29.36 in 2.2 mi Calm Calm - N/A   Haze